Location: Bothwell
(42.3833°S, 147.0000°E)
Time: 20:33:26
(UTC+11:00)

QB50P2 - Visible Passes

Search period start: 29 November 2023 00:00
Search period end: 09 December 2023 00:00
Orbit: 573 x 590 km, 98.0° (Epoch: 28 November)

Date Brightness Start Highest point End Pass type
(mag) Time Alt. Az. Time Alt. Az. Time Alt. Az.
29 Nov ? 01:12:37 10° E 01:14:26 13° ESE 01:16:16 10° SE visible
29 Nov ? 02:48:59 63° WNW 02:49:13 64° WNW 02:53:26 10° SSW visible
30 Nov ? 01:18:08 11° E 01:19:52 14° ESE 01:22:08 10° SSE visible
30 Nov ? 02:54:29 54° WNW 02:54:43 55° W 02:58:54 10° SSW visible
01 Dec ? 01:23:37 13° E 01:25:18 16° ESE 01:27:54 10° SSE visible
01 Dec ? 02:59:59 47° WNW 03:00:13 48° W 03:04:20 10° SSW visible
02 Dec ? 01:29:06 15° E 01:30:43 18° ESE 01:33:36 10° SSE visible
02 Dec ? 03:05:28 41° WNW 03:05:42 41° W 03:09:45 10° SSW visible
03 Dec ? 01:34:35 17° E 01:36:07 20° ESE 01:39:15 10° SSE visible
03 Dec ? 03:10:57 36° WNW 03:11:11 36° W 03:15:07 10° SSW visible
04 Dec ? 01:40:02 19° E 01:41:30 23° ESE 01:44:51 10° SSE visible
04 Dec ? 03:16:24 31° WNW 03:16:39 32° W 03:20:28 10° SSW visible
05 Dec ? 01:45:29 21° E 01:46:53 26° ESE 01:50:24 10° SSE visible
05 Dec ? 03:21:51 28° WNW 03:22:06 28° W 03:25:47 10° SW visible
06 Dec ? 01:50:55 24° E 01:52:15 29° ESE 01:55:56 10° S visible
06 Dec ? 03:27:17 24° W 03:27:32 25° W 03:31:02 10° SW visible
07 Dec ? 01:56:20 27° ENE 01:57:37 33° ESE 02:01:25 10° S visible
07 Dec ? 03:32:42 21° W 03:32:59 22° W 03:36:16 10° SW visible
08 Dec ? 02:01:45 30° ENE 02:02:58 37° ESE 02:06:52 10° S visible
08 Dec ? 03:38:06 19° W 03:38:24 19° W 03:41:27 10° SW visible
